Regional Weather Roundup
Issued by NWS

Home | Current Version | Previous Version | Text Only | Print | Product List | Glossary On
Versions: 1 2 3 4 5 6 7 8 9 10 11 12 13 14 15 16 17 18 19 20 21 22 23 24 25 26 27 28 29 30 31 32 33 34 35 36 37 38 39 40 41 42 43 44 45 46 47 48 49 50
000
ASCA44 KEWX 020120
RWRMX

LATIN AMERICA AND CARIBBEAN REGIONAL WEATHER ROUNDUP
NATIONAL WEATHER SERVICE AUSTIN/SAN ANTONIO TX
800 PM CDT SUN MAY 01 2016

NOTE: "FAIR" INDICATED FEW OR NO CLOUDS BELOW 12,000 FEET WITH NO
SIGNIFICANT WEATHER AND/OR OBSTRUCTIONS TO VISIBILITY.

BAJA CALIFORNIA

CITY           SKY/WX    TMP DP  RH WIND       PRES   REMARKS
LORETO         MOSUNNY   75  68  78 NE9       29.85R
LA PAZ         SUNNY     82  48  30 W8        29.85R
MEXICALI       SUNNY     84  34  16 N2        29.82S
S.J. DEL CABO  CLEAR     75  59  57 SE9       29.85R
TIJUANA        SUNNY     64  48  55 W9        29.96S

NORTHWESTERN MEXICO

CITY           SKY/WX    TMP DP  RH WIND       PRES   REMARKS
CULIACAN       CLEAR     82  66  57 SW12      29.84R
DURANGO        MOCLDY    81   1   4 SW14      30.04R
GUAYMAS        SUNNY     73  55  53 W12       29.81S
HERMOSILLO     SUNNY     84  43  23 SW8       29.86R
CD. JUAREZ     CLEAR     63  36  36 E22       29.98R
LOS MOCHIS     CLEAR     75  57  53 W12       29.85S
OBREGON        SUNNY     79  50  36 SW9       29.83R

NORTHEASTERN MEXICO

CITY           SKY/WX    TMP DP  RH WIND       PRES   REMARKS
CHIHUAHUA      CLEAR     84  23  10 E14       29.84R
MATAMOROS      MOCLDY    81  75  83 NE10      29.74R
MONCLOVA         N/A    N/A N/A N/A MISG        N/A
MONTERREY      MOCLDY    88  63  42 E9        29.75R
NUEVO LAREDO   MOCLDY    88  70  55 NE17      29.73R HX  92
PIEDRAS NEGRAS   N/A    N/A N/A N/A MISG        N/A
REYNOSA        MOCLDY    82  70  65 NE12      29.73R
SALTILLO       MOCLDY    75  50  41 N18       30.00R
TORREON        MOCLDY    93   7   4 NE9       29.78S
CD. VICTORIA   PTCLDY    90  66  45 NW6       29.71R HX  92

WESTERN MEXICO

CITY           SKY/WX    TMP DP  RH WIND       PRES   REMARKS
AGUASCALIENTES PTCLDY    82   3   5 W10       30.08R
COLIMA         MOCLDY    77  59  53 W12       29.93R
DEL BAJIO      MOCLDY    82   7   5 W7        30.12R
GUADALAJARA    PTCLDY    84  14   7 NW12      30.00R
MANZANILLO     PTCLDY    75  70  83 W17       29.76R
MAZATLAN       PTCLDY    77  64  65 W5        29.83S
P. VALLARTA    MOCLDY    77  68  73 SW12      29.84R
URUAPAN        MOCLDY    77  37  24 CALM      30.05R
ZACATECAS      MOCLDY    75  19  12 W10       30.13R

CENTRAL MEXICO

CITY           SKY/WX    TMP DP  RH WIND       PRES   REMARKS
CUERNAVACA     MOCLDY    90  16   6 CALM      29.91R
MEXICO CITY    PTCLDY    79  32  18 S8        30.17R
MORELIA        MOCLDY    77  25  14 S7        30.09R
POZA RICA      MOCLDY    84  75  74 E5        29.64F HX  92
PUEBLA         PTCLDY    72  32  23 S8        30.18R
QUERETARO      MOCLDY    75  19  12 W8        30.13R
S. LUIS POTOSI MOCLDY    82   1   4 W3        30.06R
TAMPICO        MOCLDY    81  75  83 E12       29.69R
TOLUCA         MOCLDY    73  32  21 NW10      30.28R

SOUTHERN MEXICO

CITY           SKY/WX    TMP DP  RH WIND       PRES   REMARKS
ACAPULCO       MOCLDY    79  72  78 W9        29.77R
B. DE HUATULCO PTCLDY    82  73  74 W16       29.81R
OAXACA         MOCLDY    86  41  20 SE8       30.01R
P. ESCONDIDO     N/A    N/A N/A N/A MISG        N/A
VERACRUZ       PTCLDY    84  72  65 E7        29.68R
ZIHUATANEJO    PTCLDY    79  68  69 W6        29.78S

YUCATAN PENINSULA

CITY           SKY/WX    TMP DP  RH WIND       PRES   REMARKS
CAMPECHE       CLEAR     86  81  84 N12G23    29.69R HX 102
CANCUN         MOCLDY    82  75  78 E9        29.87R
CHETUMAL       CLOUDY    84  77  79 E6        29.81R HX  94
CD. DEL CARMEN CLOUDY    88  79  74 N10       29.65F HX 102
COZUMEL        PTCLDY    77  75  94 E12       29.89R
MERIDA         PTCLDY    97  68  38 E15       29.72R HX 101
MINATITLAN     MOCLDY    84  68  58 CALM      29.63R
TAPACHULA      PTCLDY    84  81  89 W6        29.74R HX  98
TUX. GUTIERREZ CLEAR     91  48  22 NW9       29.74R
VILLAHERMOSA   CLEAR     88  81  79 N5        29.70R HX 105

CENTRAL AMERICA

CITY           SKY/WX    TMP DP  RH WIND       PRES   REMARKS
BELIZE CITY    MOCLDY    84  79  84 E8        29.81R HX  96
MANAGUA        TSTM     N/A N/A N/A W9          N/A

CARIBBEAN

CITY           SKY/WX    TMP DP  RH WIND       PRES   REMARKS
ARUBA          MOCLDY    82  75  78 E17       29.86R
CURACAO        PTCLDY    81  73  78 E20       29.89S
KINGSTON       PTCLDY    84  73  70 SE15      29.89R HX  91
NASSAU         PTCLDY    79  73  83 E12       30.04R
SAN JUAN       PTCLDY    75  68  78 S6        30.01R
SANTO DOMINGO  MOCLDY    75  72  88 N5        29.94S
ST. CROIX      PTCLDY    72  70  94 N3        30.03
ST. KITTS      PTCLDY    81  72  74 E6        30.00S
ST. MAARTEN    PTCLDY    77  72  83 E5        30.00S
ST. THOMAS     PTCLDY    75  72  88 E7        30.02

$$





USA.gov is the U.S. government's official web portal to all federal, state and local government web resources and services.